EW7001 Weather Reports


Display with metric or nautical units.
time (UTC)temp
F
wind
direction
speed
MPH
gust
MPH
rain 1hr
in
rain 24hr
in
rain mn
in
humidity
%
barometer
mb
20200803223106 85 180 0.0 9.0 0.00 0.00 0.00 32 1004.0
20200803221558 86 169 1.0 9.0 0.00 0.00 0.00 31 1003.5
20200803220132 86 155 2.0 9.0 0.00 0.00 0.00 30 1003.5
20200803213148 87 173 0.0 14.0 0.00 0.00 0.00 29 1003.9
20200803211858 86 168 0.0 9.0 0.00 0.00 0.00 29 1004.0
20200803210018 87 178 1.0 10.0 0.00 0.00 0.00 29 1004.3
20200803204530 87 188 2.0 10.0 0.00 0.00 0.00 29 1004.7
20200803203019 86 138 3.0 12.0 0.00 0.00 0.00 28 1005.1
20200803201502 86 141 0.0 12.0 0.00 0.00 0.00 30 1005.4
20200803200054 86 157 3.0 10.0 0.00 0.00 0.00 30 1005.6
20200803194521 85 110 0.0 12.0 0.00 0.00 0.00 32 1005.8
20200803193124 85 167 1.0 11.0 0.00 0.00 0.00 33 1006.0
20200803191548 85 173 1.0 9.0 0.00 0.00 0.00 34 1006.1
20200803190050 83 163 4.0 10.0 0.00 0.00 0.00 36 1006.4
20200803184606 83 193 2.0 12.0 0.00 0.00 0.00 36 1006.5
20200803183055 83 165 0.0 12.0 0.00 0.00 0.00 37 1006.5
20200803181620 82 142 1.0 12.0 0.00 0.00 0.00 39 1006.7
20200803174819 80 177 2.0 12.0 0.00 0.00 0.00 41 1007.0
20200803173219 79 155 2.0 11.0 0.00 0.00 0.00 42 1007.2
20200803173048 79 162 1.0 11.0 0.00 0.00 0.00 42 1007.2
20200803171552 77 148 3.0 9.0 0.00 0.00 0.00 45 1007.6
20200803170039 77 146 4.0 11.0 0.00 0.00 0.00 45 1007.8
20200803164612 76 183 4.0 14.0 0.00 0.00 0.00 47 1007.7
20200803161714 73 161 4.0 14.0 0.00 0.00 0.00 51 1007.7
20200803160112 72 166 3.0 11.0 0.00 0.00 0.00 53 1007.8
20200803154516 71 159 4.0 13.0 0.00 0.00 0.00 54 1008.0
20200803153006 70 173 5.0 13.0 0.00 0.00 0.00 56 1007.9
20200803151544 69 161 7.0 16.0 0.00 0.00 0.00 57 1008.0
20200803150031 68 164 4.0 14.0 0.00 0.00 0.00 59 1008.2
20200803144623 67 155 4.0 15.0 0.00 0.00 0.00 60 1008.3
20200803143117 67 186 1.0 15.0 0.00 0.00 0.00 62 1007.9
20200803141540 65 180 3.0 11.0 0.00 0.00 0.00 63 1008.1
20200803140118 64 165 6.0 14.0 0.00 0.00 0.00 65 1008.1
20200803134623 63 162 3.0 11.0 0.00 0.00 0.00 66 1008.0
20200803133045 62 169 4.0 14.0 0.00 0.00 0.00 67 1007.9
20200803131540 61 163 4.0 11.0 0.00 0.00 0.00 68 1007.9
20200803130044 60 163 1.0 7.0 0.00 0.00 0.00 70 1007.9
20200803124556 60 191 2.0 8.0 0.00 0.00 0.00 70 1007.9
20200803123053 59 201 2.0 7.0 0.00 0.00 0.00 71 1008.0
20200803121650 59 200 1.0 10.0 0.00 0.00 0.00 71 1007.9
20200803120112 59 178 2.0 10.0 0.00 0.00 0.00 70 1007.7
20200803113050 60 138 0.0 9.0 0.00 0.00 0.00 69 1007.7
20200803111553 60 161 0.0 5.0 0.00 0.00 0.00 68 1007.8
20200803110019 60 166 0.0 9.0 0.00 0.00 0.00 67 1007.8
20200803103045 60 188 0.0 3.0 0.00 0.00 0.00 67 1007.8
20200803101528 60 163 0.0 1.0 0.00 0.00 0.00 67 1007.8
20200803100034 60 175 0.0 3.0 0.00 0.00 0.00 67 1007.9
20200803093045 60 180 0.0 1.0 0.00 0.00 0.00 65 1008.0
20200803091541 61 163 0.0 7.0 0.00 0.00 0.00 64 1008.1
20200803090143 61 139 1.0 10.0 0.00 0.00 0.00 63 1008.0
20200803084559 62 160 0.0 5.0 0.00 0.00 0.00 62 1008.1
20200803083147 62 174 0.0 5.0 0.00 0.00 0.00 61 1008.2
20200803080036 63 185 1.0 10.0 0.00 0.00 0.00 58 1008.4
20200803074638 63 172 2.0 14.0 0.00 0.00 0.00 56 1008.4
20200803073146 64 186 5.0 12.0 0.00 0.00 0.00 55 1008.6
20200803071717 65 163 4.0 13.0 0.00 0.00 0.00 54 1008.7
20200803070015 65 196 5.0 16.0 0.00 0.00 0.00 53 1008.7
20200803064527 65 177 4.0 12.0 0.00 0.00 0.00 54 1008.9
20200803063024 66 190 2.0 14.0 0.00 0.00 0.00 53 1009.1
20200803061518 66 171 2.0 9.0 0.00 0.00 0.00 53 1009.0
20200803060003 67 171 0.0 7.0 0.00 0.00 0.00 53 1009.0
20200803053218 68 175 2.0 7.0 0.00 0.00 0.00 51 1009.1
20200803051609 69 173 2.0 11.0 0.00 0.00 0.00 51 1009.1
20200803050042 69 159 1.0 10.0 0.00 0.00 0.00 51 1009.1
20200803044621 69 155 2.0 9.0 0.00 0.00 0.00 50 1009.1
20200803043047 70 159 1.0 8.0 0.00 0.00 0.00 50 1009.1
20200803041541 70 157 0.0 2.0 0.00 0.00 0.00 50 1009.0
20200803040036 70 156 0.0 1.0 0.00 0.00 0.00 50 1008.9
20200803034538 71 146 0.0 1.0 0.00 0.00 0.00 49 1008.9
20200803033314 72 145 0.0 1.0 0.00 0.00 0.00 48 1008.8
20200803031613 73 156 0.0 5.0 0.00 0.00 0.00 47 1008.6
20200803030010 74 129 0.0 8.0 0.00 0.00 0.00 46 1008.4
20200803024532 74 135 2.0 9.0 0.00 0.00 0.00 45 1008.1
20200803023211 75 140 1.0 7.0 0.00 0.00 0.00 44 1008.1
20200803014536 79 125 1.0 8.0 0.00 0.00 0.00 40 1007.9
20200803013007 81 141 3.0 9.0 0.00 0.00 0.00 38 1007.9
20200803011510 82 101 1.0 8.0 0.00 0.00 0.00 36 1007.9
20200803010005 83 121 0.0 7.0 0.00 0.00 0.00 35 1008.0
20200803003121 84 140 0.0 1.0 0.00 0.00 0.00 32 1008.1
20200803001636 84 109 0.0 3.0 0.00 0.00 0.00 32 1008.2
20200803000118 84 98 0.0 0.0 0.00 0.00 0.00 31 1008.4
20200802234625 85 142 0.0 3.0 0.00 0.00 0.00 31 1008.4
20200802233059 85 158 0.0 3.0 0.00 0.00 0.00 30 1008.5
20200802231548 85 195 0.0 1.0 0.00 0.00 0.00 31 1008.5
20200802230158 84 146 0.0 3.0 0.00 0.00 0.00 31 1008.8